• In Uzbekistan
  • List of Countries
  • For 7 days
  • Water Temperature
  • Satellite Maps
  • Weather Map
  • Weather Widgets
  • user-avatar
    Login

    Hourly Weather Arhus

    Today, 22 October, Sunday

    Time Temperature Precipitation Wind Pressure Humidity
    00:00 +11°C° 0.4 mm 6 mps 754 mmHg 92%
    01:00 +11°C° 0.4 mm 6 mps 754 mmHg 93%
    02:00 +10°C° 0.2 mm 6 mps 754 mmHg 93%
    03:00 +10°C° 0.2 mm 5 mps 754 mmHg 92%
    04:00 +9°C° 0.2 mm 5 mps 753 mmHg 92%
    05:00 +9°C° 0 mm 5 mps 753 mmHg 92%
    06:00 +8°C° 0 mm 4 mps 753 mmHg 92%
    07:00 +8°C° 0 mm 4 mps 753 mmHg 92%
    08:00 +10°C° 0 mm 4 mps 753 mmHg 88%
    09:00 +10°C° 0 mm 5 mps 753 mmHg 84%
    10:00 +10°C° 0 mm 5 mps 753 mmHg 81%
    11:00 +12°C° 0 mm 5 mps 753 mmHg 79%
    12:00 +12°C° 0 mm 5 mps 753 mmHg 78%
    13:00 +12°C° 0 mm 5 mps 753 mmHg 76%
    14:00 +10°C° 0 mm 5 mps 753 mmHg 78%
    15:00 +10°C° 0 mm 5 mps 753 mmHg 79%
    16:00 +10°C° 0 mm 5 mps 754 mmHg 80%
    17:00 +9°C° 0 mm 5 mps 754 mmHg 83%
    18:00 +10°C° 0 mm 4 mps 754 mmHg 86%
    19:00 +8°C° 0 mm 4 mps 754 mmHg 89%
    20:00 +8°C° 0 mm 4 mps 755 mmHg 90%
    21:00 +9°C° 0 mm 3 mps 755 mmHg 92%
    22:00 +9°C° 0 mm 3 mps 755 mmHg 93%
    23:00 +9°C° 0 mm 3 mps 755 mmHg 94%

    Tomorrow, 23 October, Monday

    Time Temperature Precipitation Wind Pressure Humidity
    00:00 +9°C° 0 mm 3 mps 756 mmHg 94%
    01:00 +8°C° 0 mm 3 mps 756 mmHg 95%
    02:00 +9°C° 0 mm 3 mps 756 mmHg 95%
    03:00 +9°C° 0 mm 3 mps 756 mmHg 95%
    04:00 +9°C° 0 mm 3 mps 756 mmHg 95%
    05:00 +9°C° 0 mm 3 mps 756 mmHg 95%
    06:00 +9°C° 0 mm 3 mps 756 mmHg 95%
    07:00 +8°C° 0 mm 3 mps 757 mmHg 95%
    08:00 +9°C° 0 mm 3 mps 757 mmHg 91%
    09:00 +10°C° 0 mm 3 mps 757 mmHg 88%
    10:00 +11°C° 0 mm 3 mps 758 mmHg 84%
    11:00 +12°C° 0 mm 4 mps 758 mmHg 81%
    12:00 +12°C° 0 mm 4 mps 758 mmHg 78%
    13:00 +13°C° 0 mm 4 mps 758 mmHg 75%
    14:00 +12°C° 0 mm 4 mps 759 mmHg 77%
    15:00 +12°C° 0 mm 4 mps 759 mmHg 79%
    16:00 +11°C° 0 mm 4 mps 759 mmHg 81%
    17:00 +9°C° 0 mm 5 mps 760 mmHg 84%
    18:00 +9°C° 0 mm 5 mps 760 mmHg 88%
    19:00 +8°C° 0 mm 5 mps 761 mmHg 91%
    20:00 +8°C° 0 mm 5 mps 761 mmHg 92%
    21:00 +8°C° 0 mm 5 mps 762 mmHg 92%
    22:00 +8°C° 0 mm 5 mps 762 mmHg 92%
    23:00 +8°C° 0 mm 5 mps 762 mmHg 92%

    Day after tomorrow, 24 October, Tuesday

    Time Temperature Precipitation Wind Pressure Humidity
    00:00 +8°C° 0 mm 5 mps 763 mmHg 92%
    01:00 +8°C° 0 mm 5 mps 763 mmHg 91%
    02:00 +8°C° 0 mm 5 mps 763 mmHg 92%
    03:00 +8°C° 0 mm 5 mps 763 mmHg 92%
    04:00 +7°C° 0 mm 5 mps 763 mmHg 92%
    05:00 +8°C° 0 mm 5 mps 763 mmHg 92%
    06:00 +8°C° 0 mm 5 mps 763 mmHg 91%
    07:00 +8°C° 0 mm 5 mps 763 mmHg 90%
    08:00 +8°C° 0 mm 5 mps 763 mmHg 89%
    09:00 +9°C° 0 mm 6 mps 763 mmHg 87%
    10:00 +9°C° 0 mm 6 mps 763 mmHg 85%
    11:00 +10°C° 0 mm 6 mps 763 mmHg 85%
    12:00 +10°C° 0 mm 6 mps 763 mmHg 85%
    13:00 +11°C° 0 mm 6 mps 763 mmHg 86%
    14:00 +11°C° 0.1 mm 6 mps 763 mmHg 87%
    15:00 +11°C° 0.1 mm 6 mps 762 mmHg 89%
    16:00 +11°C° 0.1 mm 6 mps 762 mmHg 90%
    17:00 +11°C° 1 mm 7 mps 762 mmHg 91%
    18:00 +11°C° 1 mm 7 mps 761 mmHg 92%
    19:00 +11°C° 1 mm 8 mps 761 mmHg 92%
    20:00 +11°C° 0.6 mm 8 mps 760 mmHg 93%
    21:00 +11°C° 0.6 mm 9 mps 760 mmHg 93%
    22:00 +12°C° 0.6 mm 9 mps 759 mmHg 93%
    23:00 +12°C° 0.9 mm 8 mps 759 mmHg 94%

    25 October, Wednesday

    Time Temperature Precipitation Wind Pressure Humidity
    00:00 +12°C° 0.9 mm 7 mps 759 mmHg 95%
    01:00 +14°C° 0.9 mm 6 mps 759 mmHg 96%
    02:00 +13°C° 0.1 mm 6 mps 759 mmHg 95%
    03:00 +13°C° 0.1 mm 5 mps 759 mmHg 94%
    04:00 +12°C° 0.1 mm 4 mps 759 mmHg 93%
    05:00 +12°C° 0 mm 4 mps 759 mmHg 94%
    06:00 +12°C° 0 mm 3 mps 759 mmHg 95%
    07:00 +11°C° 0 mm 3 mps 759 mmHg 95%
    08:00 +11°C° 1.2 mm 3 mps 759 mmHg 95%
    09:00 +12°C° 1.2 mm 3 mps 759 mmHg 94%
    10:00 +12°C° 1.2 mm 3 mps 759 mmHg 94%
    11:00 +12°C° 1.2 mm 2 mps 759 mmHg 93%
    12:00 +12°C° 1.2 mm 2 mps 759 mmHg 91%
    13:00 +12°C° 1.2 mm 2 mps 759 mmHg 90%
    14:00 +12°C° 0.2 mm 2 mps 759 mmHg 90%
    15:00 +12°C° 0.2 mm 2 mps 759 mmHg 90%
    16:00 +12°C° 0.2 mm 2 mps 759 mmHg 90%
    17:00 +12°C° 0 mm 2 mps 759 mmHg 92%
    18:00 +12°C° 0 mm 2 mps 760 mmHg 93%
    19:00 +12°C° 0 mm 2 mps 760 mmHg 94%
    20:00 +12°C° 0 mm 2 mps 760 mmHg 94%
    21:00 +10°C° 0 mm 3 mps 760 mmHg 95%
    22:00 +10°C° 0 mm 4 mps 761 mmHg 96%
    23:00 +10°C° 0 mm 4 mps 761 mmHg 96%

    26 October, Thursday

    Time Temperature Precipitation Wind Pressure Humidity
    00:00 +10°C° 0 mm 4 mps 761 mmHg 96%
    01:00 +10°C° 0 mm 4 mps 762 mmHg 96%
    02:00 +9°C° 0 mm 5 mps 761 mmHg 96%
    03:00 +9°C° 0 mm 5 mps 761 mmHg 95%
    04:00 +9°C° 0 mm 5 mps 761 mmHg 95%
    05:00 +8°C° 0 mm 5 mps 761 mmHg 94%
    06:00 +8°C° 0 mm 5 mps 762 mmHg 94%
    07:00 +8°C° 0 mm 5 mps 762 mmHg 93%
    08:00 +9°C° 0 mm 5 mps 762 mmHg 90%
    09:00 +10°C° 0 mm 5 mps 762 mmHg 87%
    10:00 +11°C° 0 mm 6 mps 762 mmHg 84%
    11:00 +11°C° 0 mm 6 mps 762 mmHg 81%
    12:00 +11°C° 0 mm 6 mps 762 mmHg 78%
    13:00 +13°C° 0 mm 6 mps 762 mmHg 75%
    14:00 +11°C° 0 mm 6 mps 761 mmHg 77%
    15:00 +11°C° 0 mm 6 mps 761 mmHg 78%
    16:00 +11°C° 0 mm 6 mps 761 mmHg 80%
    17:00 +10°C° 0 mm 6 mps 761 mmHg 82%
    18:00 +9°C° 0 mm 6 mps 761 mmHg 84%
    19:00 +9°C° 0 mm 6 mps 760 mmHg 87%
    20:00 +9°C° 0 mm 6 mps 760 mmHg 87%
    21:00 +9°C° 0 mm 6 mps 760 mmHg 87%
    22:00 +9°C° 0 mm 6 mps 760 mmHg 86%
    23:00 +9°C° 0 mm 6 mps 759 mmHg 87%

    27 October, Friday

    Time Temperature Precipitation Wind Pressure Humidity
    00:00 +8°C° 0 mm 6 mps 759 mmHg 88%
    01:00 +8°C° 0 mm 6 mps 759 mmHg 89%
    02:00 +8°C° 0.2 mm 6 mps 758 mmHg 88%
    03:00 +8°C° 0.2 mm 6 mps 757 mmHg 88%
    04:00 +8°C° 0.2 mm 7 mps 757 mmHg 87%
    05:00 +8°C° 0.2 mm 7 mps 756 mmHg 86%
    06:00 +8°C° 0.2 mm 7 mps 756 mmHg 84%
    07:00 +7°C° 0.2 mm 8 mps 756 mmHg 83%
    08:00 +9°C° 0 mm 8 mps 756 mmHg 80%
    09:00 +9°C° 0 mm 8 mps 756 mmHg 77%
    10:00 +10°C° 0 mm 9 mps 756 mmHg 74%
    11:00 +10°C° 0.1 mm 9 mps 756 mmHg 73%
    12:00 +11°C° 0.1 mm 9 mps 756 mmHg 72%
    13:00 +11°C° 0.1 mm 9 mps 756 mmHg 72%
    14:00 +11°C° 0 mm 9 mps 756 mmHg 73%
    15:00 +10°C° 0 mm 9 mps 756 mmHg 75%
    16:00 +10°C° 0 mm 8 mps 756 mmHg 76%
    17:00 +9°C° 0 mm 8 mps 756 mmHg 78%
    18:00 +9°C° 0 mm 8 mps 756 mmHg 79%
    19:00 +7°C° 0 mm 8 mps 756 mmHg 81%
    20:00 +8°C° 0 mm 7 mps 756 mmHg 81%
    21:00 +8°C° 0 mm 7 mps 756 mmHg 81%
    22:00 +8°C° 0 mm 7 mps 755 mmHg 81%
    23:00 +8°C° 0.1 mm 7 mps 755 mmHg 81%
    Show more